Location: Cours
(47.6774°N, 4.0055°E)
Time: 22:13:19
(UTC+00:00)

Daily predictions for brighter satellites

Satellite Brightness Start Highest point End
(mag) Time Altitude Azimuth Time Altitude Azimuth Time Altitude Azimuth
BREEZE-M (TANK) 4.4 17:34:42 10° WNW 17:39:01 87° NNE 17:58:30 10° ESE
Cosmos 1844 Rocket 3.3 17:58:00 10° S 18:02:58 34° ESE 18:07:58 10° NE
Cosmos 372 Rocket 4.1 17:59:39 10° S 18:04:47 60° ESE 18:09:56 10° NNE
Cosmos 1707 2.9 18:01:08 10° N 18:04:54 51° ENE 18:08:38 10° SSE
NOSS 3-2 (C) 4.2 17:58:50 10° NW 18:06:04 59° NE 18:14:18 10° ESE
Cosmos 1844 4.4 18:05:27 10° SSE 18:10:25 32° ESE 18:15:23 10° NE
ISS -3.5 18:07:24 10° WSW 18:10:46 70° NNW 18:14:08 10° ENE
USA 186 3.7 18:11:33 10° E 18:13:25 15° ENE 18:15:20 10° NNE
Meteor 1-12 Rocket 4.4 18:08:39 10° S 18:14:19 53° E 18:19:56 10° NNE
Cosmos 1300 Rocket 3.7 18:15:22 10° S 18:19:38 51° E 18:23:57 10° NNE
Okean 1 Rocket 4.3 18:19:44 10° SE 18:23:03 21° E 18:26:24 10° NE
Sich 1 Rocket 3.7 18:19:26 10° S 18:23:57 88° E 18:28:33 10° N
NOSS 2-2 (E) 4.2 18:21:20 10° WSW 18:24:46 48° NW 18:28:47 10° NNE
CENTAUR R/B 3.3 18:17:15 10° NW 18:25:10 69° NE 18:33:55 10° SE
Cosmos 2298 Rocket 4.1 18:20:49 10° S 18:26:04 62° ESE 18:31:21 10° NNE
Cosmos 1833 Rocket 4.1 18:22:09 10° N 18:26:25 21° NE 18:30:12 12° E
Iridium 4 Rocket 4.5 18:23:16 10° SSW 18:28:23 57° W 18:33:58 10° N
CSL-04 Debris 4.1 18:25:03 10° SSE 18:30:25 79° ENE 18:35:50 10° NNW
CSL-04 Rocket 3.7 18:26:56 10° SSE 18:32:22 78° ENE 18:37:55 10° NNW
ATLAS 2AS CENTAUR R/B 3.6 18:27:20 10° S 18:34:09 33° ESE 18:41:00 10° NE
Okean 2 Rocket 3.0 18:29:42 10° S 18:34:10 74° E 18:38:38 10° NNE
Cosmos 1025 Rocket 3.0 18:29:55 10° N 18:34:20 76° E 18:38:44 10° SSE
NOSS 2-2 (D) 4.1 18:31:12 10° WSW 18:34:38 48° NW 18:38:34 10° NNE
YAOGAN 1 3.0 18:30:41 10° S 18:34:59 68° WSW 18:39:20 10° NNW
ATLAS 3B R/B 3.5 18:31:03 10° NNW 18:37:17 37° NNE 18:42:35 15° E
SWAS 4.4 18:35:50 10° NNW 18:40:09 76° ENE 18:44:25 10° SSE
Abrixas rocket 1.9 18:37:41 10° W 18:40:31 71° SSW 18:42:11 22° ESE
Cosmos 1513 Rocket 4.5 18:35:29 10° S 18:41:43 85° E 18:47:53 10° N
CREW DRAGON DEMO-1 DEB 2.7 18:39:25 10° WNW 18:42:27 89° SSW 18:44:16 22° ESE
Cosmos 1536 Rocket 3.5 18:39:39 10° N 18:44:07 72° E 18:48:35 10° SSE
Cosmos 1125 Rocket 3.6 18:41:31 10° S 18:46:42 59° ESE 18:51:56 10° NNE
SJ-6B 3.5 18:48:31 20° ESE 18:50:19 31° ENE 18:53:42 10° N
CZ-4 R/B 3.1 18:48:47 10° SSW 18:52:41 36° W 18:56:34 10° NNW
SJ-11-01 4.5 18:48:56 10° S 18:53:38 76° WSW 18:58:22 10° NNW
Cosmos 2150 Rocket 4.1 18:48:13 10° SSW 18:53:38 86° WNW 18:59:09 10° NNE
USA 238 DEB 4.2 18:47:19 10° NW 18:54:30 69° SW 19:01:56 10° SSE
USA 238 4.2 18:47:26 10° NW 18:54:36 69° SW 19:02:03 10° SSE
CZ-2C R/B 3.7 18:49:23 10° S 18:54:43 65° WSW 19:00:23 10° NNW
Cosmos 1464 Rocket 4.1 18:48:57 10° S 18:55:05 81° W 19:01:20 10° N
Cosmos 1674 2.6 18:52:39 10° N 18:56:31 65° E 19:00:17 10° SSE
Cosmos 2026 Rocket 4.4 18:51:07 10° N 18:57:11 43° ENE 19:02:17 14° SE
Cosmos 2285 Rocket 4.0 18:51:16 10° S 18:57:25 59° ESE 19:03:40 10° NNE
Cosmos 1092 Rocket 4.1 18:51:24 10° N 18:57:27 55° ENE 19:03:31 10° SSE
MOS 1 Rocket 3.0 18:58:39 10° NNE 19:03:04 85° E 19:07:21 10° SSW
FREGAT/IRIS 3.4 19:04:41 28° NE 19:04:41 28° NE 19:06:26 10° N
TSX-5 4.2 19:04:55 10° S 19:08:34 43° ESE 19:13:11 10° NE
ARGOS 3.2 19:04:55 10° S 19:10:17 79° WSW 19:15:43 10° NNW
CZ-2C R/B 2.8 19:07:51 10° NNE 19:13:19 53° E 19:18:47 10° S
Cosmos 1340 Rocket 3.7 19:15:12 29° ENE 19:15:12 29° ENE 19:17:59 10° NNE
Cosmos 1733 3.3 19:13:48 21° SSE 19:16:04 50° E 19:19:47 10° NNE
Cosmos 2151 Rocket 4.3 19:12:28 10° SSW 19:16:53 58° WNW 19:21:21 10° N
MOS 1 4.3 19:13:05 16° SSE 19:17:42 69° ENE 19:23:23 10° N
Lacrosse 5 rocket 3.1 19:14:49 10° NW 19:18:33 26° N 19:20:43 18° NE
Cosmos 2082 Rocket 3.2 19:14:52 10° NNW 19:19:43 28° NE 19:21:17 25° ENE
BREEZE-M DEB (TANK) 3.9 19:19:24 10° W 19:22:36 42° SSW 19:27:36 20° SE
DMSP B5D2-2 4.1 19:17:57 10° NNE 19:23:10 54° E 19:28:19 10° S
BREEZE-M R/B 3.8 19:12:50 10° WSW 19:23:13 79° SSE 19:24:25 40° E
Meteor 1-15 Rocket 4.4 19:21:54 10° SSW 19:27:34 78° WNW 19:33:22 10° N
Cosmos 1805 3.2 19:24:03 10° S 19:27:57 83° W 19:31:54 10° N
OBJECT-B 1.7 19:28:48 36° NNE 19:28:48 36° NNE 19:31:09 10° N
Milstar 3 Cent rocket 4.3 19:29:32 10° SSW 19:31:25 11° S 19:32:39 11° S
Ariane Rocket 3.0 19:28:06 16° SSE 19:32:09 82° WSW 19:37:16 10° NNW
SL-08 RB Rocket 4.1 19:27:52 11° S 19:32:14 64° WSW 19:36:46 10° NNW
H-2A R/B 3.4 19:29:09 10° SSW 19:33:46 37° W 19:38:32 10° NNW
Cosmos 1269 Rocket 4.0 19:31:25 10° NNW 19:36:46 83° WSW 19:39:33 29° SSE
Cosmos 1626 2.0 19:38:05 10° N 19:41:49 88° W 19:42:02 79° S
Okean 1-7 Rocket 4.0 19:37:44 10° N 19:41:51 44° ENE 19:41:51 44° ENE
MetOp-A 4.1 19:40:20 24° S 19:43:41 83° WSW 19:49:05 10° NNW
USA 186 3.1 19:42:34 27° SW 19:43:48 38° W 19:46:55 10° NNW
COSMOS 2406 3.1 19:40:18 10° NNW 19:46:01 83° ENE 19:47:55 44° SE
Cosmos 1844 Rocket 3.9 19:41:28 10° SW 19:46:45 43° NW 19:52:05 10° NNE
ISS -2.7 19:44:40 10° WNW 19:47:46 40° N 19:47:46 40° N
Cosmos 2278 Rocket 2.4 19:45:16 10° S 19:51:32 46° E 19:56:09 10° NE
Lacrosse 4 Rocket 2.2 19:49:39 10° NNW 19:52:52 38° NNE 19:52:52 38° NNE
Meteor 1-22 Rocket 4.3 19:49:29 10° S 19:55:25 90° WNW 20:01:33 10° NNE
Meteor 2-5 Rocket 4.2 19:50:38 10° NNW 19:56:13 59° W 20:00:46 16° S
Meteor 1-24 Rocket 3.9 19:53:00 10° NNW 19:58:35 72° W 20:01:37 29° S
Cosmos 909 Rocket 4.3 19:52:12 10° NNW 19:58:38 53° NE 19:59:55 46° E
Exosat Rocket 4.3 19:53:36 10° SW 19:58:44 51° WNW 20:03:39 10° NNE
Okean 1 Rocket 4.2 19:56:22 10° SSW 20:00:39 44° WNW 20:04:58 10° N
Cosmos 2266 Rocket 4.4 19:55:04 10° N 20:00:33 41° ENE 20:00:33 41° ENE
SL-14 R/B 3.6 19:57:50 10° NNW 20:01:45 60° W 20:01:55 60° WSW
NOSS 3-4 (A) 3.4 19:55:55 10° SW 20:01:51 82° NW 20:08:16 10° NE
NOSS 3-4 (C) 3.4 19:56:02 10° SW 20:01:58 83° NW 20:08:23 10° NE
Meteor 2-19 Rocket 4.3 19:56:39 10° N 20:02:46 67° ENE 20:03:47 57° SE
Resurs 01 Rocket 1.8 20:03:26 60° NNE 20:03:26 60° NNE 20:07:18 10° N
Cosmos 1833 Rocket 2.6 20:05:25 10° NNW 20:11:06 86° WSW 20:11:54 67° SSE
Cosmos 2251 Rocket 3.6 20:08:40 10° NNW 20:13:44 62° NE 20:13:44 62° NE
CENTAUR R/B 4.2 20:08:19 10° NW 20:15:47 40° WSW 20:22:00 17° S
ARIANE 5 R/B 3.8 20:20:05 34° N 20:20:05 34° N 20:22:41 10° N
SPOT 3 Rocket 3.8 20:20:50 58° SW 20:21:32 65° WSW 20:26:41 10° NNW
ATLAS 2AS CENTAUR R/B 3.2 20:16:43 10° SW 20:24:41 74° NW 20:32:34 10° NE
Resurs 1-3 4.4 20:26:17 47° W 20:26:17 47° W 20:30:33 10° NNW
ATLAS 3B R/B 2.8 20:21:41 10° NW 20:28:32 73° SW 20:29:50 59° S
Cosmos 1892 Rocket 4.5 20:24:38 10° NNW 20:28:36 45° W 20:28:36 45° W
SPOT 5 4.4 20:33:48 28° NNE 20:33:48 28° NNE 20:36:55 10° N
Meteor 1-21 Rocket 4.4 20:28:09 10° N 20:33:15 65° NNE 20:33:15 65° NNE
Cosmos 1655 Rocket 3.9 20:31:12 10° N 20:37:31 86° W 20:37:50 81° SSW
Lacrosse 5 rocket 3.4 20:54:00 10° NW 20:56:20 29° NW 20:56:20 29° NW
Cosmos 2098 Rocket 4.3 20:55:18 10° NNW 21:01:45 57° W 21:01:45 57° W
Cosmos 2082 Rocket 2.9 20:58:39 10° NW 21:03:08 50° WNW 21:03:08 50° WNW
Terra 4.0 21:21:45 21° N 21:21:45 21° N 21:23:20 10° N
Lacrosse 4 Rocket 4.4 21:28:45 10° WNW 21:29:10 12° WNW 21:29:10 12° WNW
Cosmos 2278 Rocket 3.7 21:33:01 25° W 21:35:01 32° NW 21:40:04 10° NNE
Resurs 01 Rocket 4.5 21:41:01 13° WNW 21:41:01 13° WNW 21:42:16 10° NW
ATLAS 2AS CENTAUR R/B 4.5 22:10:03 10° W 22:16:59 31° NNW 22:23:43 10° NE
